Flag for Canada Weather past 2 weeks in Hay River, Northwest Territories, Canada

Now
55 °F

Partly cloudy.


Feels Like: 54 °F
Forecast: 58 / 66 °F
Wind: 7 mph from Southwest

Location: Hay River

Current Time: Jul 30, 2015 at 5:03:47 AM

Latest Report: Jul 30, 2015 at 4:00 AM


Visibility: 15 mi

Pressure: 29.91 "Hg

Humidity: 82%

Dew point: 50 °F

Location of Hay RiverLocation

Historic Weather in Hay River — Graph

°F

Hay River temperature yesterday

Maximum temperature yesterday: 75 °F (at 4:00 PM)
Minimum temperature yesterday: 52 °F (at 4:00 AM)
Average temperature yesterday: 64 °F

Past Weeks' High & Low Weather Summary

 TemperatureHumidityPressure
High75 °F (Jul 15, 1:00 PM)100% (Jul 15, 4:00 AM)30.01 "Hg (Jul 15, 4:00 AM)
Low45 °F (Jul 23, 3:00 AM)39% (Jul 29, 4:00 PM)29.54 "Hg (Jul 15, 7:00 PM)
Average62 °F75%29.75 "Hg
* Reported Jul 15 4:00 AM — Jul 30 4:00 AM, Hay River, Weather by CustomWeather, © 2015

Note: Actual official high and low records may vary slightly from our data, if they occured in-between our weather recording intervals... More about our weather records

Advertising

Hay River weather history for previous 24 hours

 ConditionsComfort  
Time TempWeatherWind HumidityBarometerVisibility
4:00 AM
Thu, Jul 30
55 °FPartly cloudy.7 mph82%29.91 "Hg15 mi
3:00 AM55 °FPartly cloudy.5 mph82%29.89 "Hg15 mi
2:00 AM55 °FPartly cloudy.7 mph82%29.89 "Hg15 mi
1:00 AM55 °FPartly cloudy.7 mph82%29.88 "Hg15 mi
12:00 AM59 °FPartly cloudy.6 mph77%29.87 "Hg15 mi
11:00 PM
Wed, Jul 29
61 °FBroken clouds.3 mph83%29.86 "Hg15 mi
10:00 PM63 °FPartly sunny.3 mph83%29.85 "Hg15 mi
9:00 PM64 °FScattered showers. Broken clouds.7 mph73%29.84 "Hg15 mi
8:00 PM70 °FScattered showers. Broken clouds.5 mph60%29.82 "Hg15 mi
7:00 PM70 °FSandstorm.5 mph60%29.81 "Hg15 mi
6:00 PM73 °FBroken clouds.8 mph50%29.81 "Hg15 mi
5:00 PM73 °FScattered showers. Broken clouds.3 mph47%29.81 "Hg15 mi
4:00 PM75 °FBroken clouds.8 mph39%29.81 "Hg15 mi
3:00 PM73 °FBroken clouds.5 mph57%29.80 "Hg15 mi
2:00 PM66 °FScattered showers. Broken clouds.3 mph78%29.80 "Hg15 mi
1:00 PM68 °FLight rain. Broken clouds.6 mph60%29.79 "Hg15 mi
12:00 PM72 °FPartly sunny.3 mph57%29.78 "Hg15 mi
11:00 AM70 °FScattered clouds.3 mph57%29.78 "Hg15 mi
10:00 AM66 °FScattered clouds.5 mph64%29.78 "Hg15 mi
9:00 AM63 °FScattered clouds.3 mph73%29.78 "Hg15 mi
8:00 AM59 °FScattered clouds.5 mph82%29.78 "Hg15 mi
7:00 AM55 °FPassing clouds.2 mph94%29.78 "Hg15 mi
6:00 AM52 °FPassing clouds.2 mph100%29.79 "Hg15 mi
5:00 AM54 °FPassing clouds.3 mph94%29.78 "Hg15 mi
Weather by CustomWeather, © 2015

See weather overviewHow to use our weather pages